Time,TemperatureF,DewpointF,PressureIn,WindDirection,WindDirectionDegrees,WindSpeedMPH,WindSpeedGustMPH,Humidity,HourlyPrecipIn,Conditions,Clouds,dailyrainin,SoftwareType,DateUTC
2013-03-20 00:03:00,33.6,31.7,29.63,South,180,2.0,7.6,93,0.00,,,0.00,WeatherCatV1.10B1784,2013-03-20 00:03:00,
2013-03-20 00:13:00,33.4,31.6,29.63,ENE,67,0.0,5.1,93,0.00,,,0.00,WeatherCatV1.10B1784,2013-03-20 00:13:00,
2013-03-20 00:23:00,33.4,31.6,29.64,South,180,4.0,5.8,93,0.00,,,0.00,WeatherCatV1.10B1784,2013-03-20 00:23:00,
2013-03-20 00:33:00,33.4,31.6,29.64,South,180,0.0,6.3,93,0.00,,,0.00,WeatherCatV1.10B1784,2013-03-20 00:33:00,
2013-03-20 00:43:00,33.4,31.6,29.65,South,180,0.0,3.8,93,0.00,,,0.00,WeatherCatV1.10B1784,2013-03-20 00:43:00,
2013-03-20 00:53:00,33.3,31.4,29.65,WSW,247,0.0,0.7,93,0.00,,,0.00,WeatherCatV1.10B1784,2013-03-20 00:53:00,
2013-03-20 01:03:00,33.1,31.2,29.65,South,180,0.0,2.7,93,0.00,,,0.00,WeatherCatV1.10B1784,2013-03-20 01:03:00,
2013-03-20 01:13:00,33.1,31.2,29.65,SSW,202,0.0,3.1,93,0.00,,,0.00,WeatherCatV1.10B1784,2013-03-20 01:13:00,
2013-03-20 01:23:00,33.1,31.2,29.65,South,180,0.0,3.4,93,0.00,,,0.00,WeatherCatV1.10B1784,2013-03-20 01:23:00,
2013-03-20 01:33:00,33.1,31.2,29.65,South,180,0.0,2.2,93,0.00,,,0.00,WeatherCatV1.10B1784,2013-03-20 01:33:00,
2013-03-20 01:43:00,33.1,31.5,29.65,SW,225,1.8,3.1,94,0.00,,,0.00,WeatherCatV1.10B1784,2013-03-20 01:43:00,
2013-03-20 01:53:00,33.3,31.5,29.65,West,270,1.6,3.4,94,0.00,,,0.00,WeatherCatV1.10B1784,2013-03-20 01:53:00,
2013-03-20 02:03:00,33.1,31.5,29.66,South,180,1.3,3.6,94,0.00,,,0.00,WeatherCatV1.10B1784,2013-03-20 02:03:00,
2013-03-20 02:13:00,33.3,31.7,29.65,South,180,2.9,4.7,94,0.00,,,0.00,WeatherCatV1.10B1784,2013-03-20 02:13:00,
2013-03-20 02:23:00,33.3,31.4,29.66,South,180,2.0,4.2,93,0.00,,,0.00,WeatherCatV1.10B1784,2013-03-20 02:23:00,
2013-03-20 02:33:00,33.3,31.4,29.66,South,180,0.9,2.7,93,0.00,,,0.00,WeatherCatV1.10B1784,2013-03-20 02:33:00,
2013-03-20 02:43:00,33.4,31.6,29.66,SSE,157,1.6,2.5,93,0.02,,,0.02,WeatherCatV1.10B1784,2013-03-20 02:43:00,
2013-03-20 02:53:00,33.4,31.6,29.66,WSW,247,0.9,2.5,93,0.02,,,0.02,WeatherCatV1.10B1784,2013-03-20 02:53:00,
2013-03-20 03:03:00,33.4,31.6,29.66,South,180,1.6,2.5,93,0.02,,,0.02,WeatherCatV1.10B1784,2013-03-20 03:03:00,
2013-03-20 03:13:00,33.3,31.4,29.66,SSE,157,0.0,8.3,93,0.02,,,0.02,WeatherCatV1.10B1784,2013-03-20 03:13:00,
2013-03-20 03:23:00,33.3,31.4,29.67,South,180,1.6,4.0,93,0.02,,,0.02,WeatherCatV1.10B1784,2013-03-20 03:23:00,
2013-03-20 03:33:00,33.4,31.6,29.67,South,180,2.5,2.5,93,0.02,,,0.02,WeatherCatV1.10B1784,2013-03-20 03:33:00,
2013-03-20 03:43:00,33.4,31.6,29.67,SSW,202,1.8,2.9,93,0.00,,,0.02,WeatherCatV1.10B1784,2013-03-20 03:43:00,
2013-03-20 03:53:00,33.3,31.1,29.67,South,180,2.2,4.7,92,0.00,,,0.02,WeatherCatV1.10B1784,2013-03-20 03:53:00,
2013-03-20 04:03:00,33.3,31.0,29.67,SSW,202,0.9,4.2,92,0.00,,,0.02,WeatherCatV1.10B1784,2013-03-20 04:03:00,
2013-03-20 04:13:00,33.3,31.4,29.68,SSW,202,1.6,4.0,93,0.00,,,0.02,WeatherCatV1.10B1784,2013-03-20 04:13:00,
2013-03-20 04:23:00,33.1,31.4,29.68,South,180,5.4,5.4,93,0.00,,,0.02,WeatherCatV1.10B1784,2013-03-20 04:23:00,
2013-03-20 04:33:00,33.3,31.2,29.68,South,180,5.6,6.9,93,0.00,,,0.02,WeatherCatV1.10B1784,2013-03-20 04:33:00,
2013-03-20 04:43:00,33.3,31.1,29.69,South,180,1.6,3.8,92,0.00,,,0.02,WeatherCatV1.10B1784,2013-03-20 04:43:00,
2013-03-20 04:53:00,32.9,30.8,29.69,SSW,202,0.0,3.1,92,0.00,,,0.02,WeatherCatV1.10B1784,2013-03-20 04:53:00,
2013-03-20 05:03:00,32.7,30.6,29.69,South,180,2.5,4.0,92,0.00,,,0.02,WeatherCatV1.10B1784,2013-03-20 05:03:00,
2013-03-20 05:13:00,32.9,31.0,29.69,SSW,202,2.5,3.4,92,0.00,,,0.02,WeatherCatV1.10B1784,2013-03-20 05:13:00,
2013-03-20 05:23:00,33.1,31.0,29.70,SSE,157,4.7,5.1,92,0.00,,,0.02,WeatherCatV1.10B1784,2013-03-20 05:23:00,
2013-03-20 05:33:00,33.1,31.0,29.71,South,180,0.0,3.8,92,0.00,,,0.02,WeatherCatV1.10B1784,2013-03-20 05:33:00,
2013-03-20 05:43:00,33.1,31.0,29.71,South,180,0.0,6.0,92,0.00,,,0.02,WeatherCatV1.10B1784,2013-03-20 05:43:00,
2013-03-20 05:53:00,33.1,31.0,29.71,SSW,202,0.0,2.5,92,0.00,,,0.02,WeatherCatV1.10B1784,2013-03-20 05:53:00,
2013-03-20 06:03:00,33.1,31.0,29.71,South,180,5.8,5.8,92,0.00,,,0.02,WeatherCatV1.10B1784,2013-03-20 06:03:00,
2013-03-20 06:13:00,33.1,31.0,29.72,West,270,0.0,4.7,92,0.00,,,0.02,WeatherCatV1.10B1784,2013-03-20 06:13:00,
2013-03-20 06:23:00,33.1,31.0,29.72,SSE,157,1.1,2.2,92,0.00,,,0.02,WeatherCatV1.10B1784,2013-03-20 06:23:00,
2013-03-20 06:33:00,33.1,31.0,29.73,SSE,157,3.1,3.1,92,0.00,,,0.02,WeatherCatV1.10B1784,2013-03-20 06:33:00,
2013-03-20 06:43:00,32.9,30.8,29.73,South,180,0.0,2.7,92,0.00,,,0.02,WeatherCatV1.10B1784,2013-03-20 06:43:00,
2013-03-20 06:53:00,32.9,30.8,29.73,WSW,247,0.9,5.1,92,0.00,,,0.02,WeatherCatV1.10B1784,2013-03-20 06:53:00,
2013-03-20 07:03:00,32.9,30.8,29.74,SSE,157,0.7,2.5,92,0.00,,,0.02,WeatherCatV1.10B1784,2013-03-20 07:03:00,
2013-03-20 07:13:00,32.7,30.6,29.75,NNW,337,0.0,2.9,92,0.00,,,0.02,WeatherCatV1.10B1784,2013-03-20 07:13:00,
2013-03-20 07:23:00,32.7,30.6,29.75,SSE,157,1.8,3.1,92,0.00,,,0.02,WeatherCatV1.10B1784,2013-03-20 07:23:00,
2013-03-20 07:33:00,32.9,30.8,29.75,SSW,202,0.0,2.9,92,0.00,,,0.02,WeatherCatV1.10B1784,2013-03-20 07:33:00,
2013-03-20 07:43:00,32.9,30.8,29.75,South,180,0.9,3.1,92,0.00,,,0.02,WeatherCatV1.10B1784,2013-03-20 07:43:00,
2013-03-20 07:53:00,33.1,31.0,29.76,South,180,2.2,2.2,92,0.00,,,0.02,WeatherCatV1.10B1784,2013-03-20 07:53:00,
2013-03-20 08:03:00,33.1,31.0,29.76,WSW,247,2.0,2.9,92,0.00,,,0.02,WeatherCatV1.10B1784,2013-03-20 08:03:00,
2013-03-20 08:13:00,33.3,31.1,29.76,SSW,202,0.7,2.0,92,0.00,,,0.02,WeatherCatV1.10B1784,2013-03-20 08:13:00,
2013-03-20 08:23:00,33.4,31.3,29.76,South,180,2.2,5.6,92,0.00,,,0.02,WeatherCatV1.10B1784,2013-03-20 08:23:00,
2013-03-20 08:33:00,33.6,31.5,29.77,SSW,202,1.6,4.5,92,0.00,,,0.02,WeatherCatV1.10B1784,2013-03-20 08:33:00,
2013-03-20 08:43:00,33.6,31.2,29.77,SSW,202,0.0,4.7,91,0.00,,,0.02,WeatherCatV1.10B1784,2013-03-20 08:43:00,
2013-03-20 08:53:00,33.8,31.4,29.77,SSW,202,0.9,2.5,91,0.00,,,0.02,WeatherCatV1.10B1784,2013-03-20 08:53:00,
2013-03-20 09:03:00,34.2,31.7,29.78,SSW,202,0.0,4.5,91,0.00,,,0.02,WeatherCatV1.10B1784,2013-03-20 09:03:00,
2013-03-20 09:13:00,34.3,31.9,29.78,SE,135,1.1,3.6,91,0.00,,,0.02,WeatherCatV1.10B1784,2013-03-20 09:13:00,
2013-03-20 09:23:00,34.5,31.8,29.79,SSW,202,2.2,2.2,90,0.00,,,0.02,WeatherCatV1.10B1784,2013-03-20 09:23:00,
2013-03-20 09:33:00,34.7,32.0,29.79,SW,225,0.0,4.2,90,0.00,,,0.02,WeatherCatV1.10B1784,2013-03-20 09:33:00,
2013-03-20 09:43:00,35.1,32.3,29.79,NNW,337,1.1,2.5,89,0.00,,,0.02,WeatherCatV1.10B1784,2013-03-20 09:43:00,
2013-03-20 09:53:00,35.4,32.4,29.80,East,90,0.0,1.3,89,0.00,,,0.02,WeatherCatV1.10B1784,2013-03-20 09:53:00,
2013-03-20 10:03:00,36.0,32.5,29.81,NNW,337,0.0,2.2,88,0.00,,,0.02,WeatherCatV1.10B1784,2013-03-20 10:03:00,
2013-03-20 10:13:00,35.8,32.5,29.80,South,180,2.5,4.0,88,0.00,,,0.02,WeatherCatV1.10B1784,2013-03-20 10:13:00,
2013-03-20 10:33:00,36.1,32.9,29.82,SSE,157,3.1,4.9,88,0.00,,,0.02,WeatherCatV1.10B1784,2013-03-20 10:33:00,
2013-03-20 10:43:00,36.5,32.9,29.82,NNW,337,1.1,6.0,87,0.00,,,0.02,WeatherCatV1.10B1784,2013-03-20 10:43:00,
2013-03-20 10:53:00,37.0,33.0,29.82,SSE,157,2.9,3.6,86,0.00,,,0.02,WeatherCatV1.10B1784,2013-03-20 10:53:00,
2013-03-20 11:03:00,36.9,33.0,29.83,SSW,202,2.9,7.6,86,0.00,,,0.02,WeatherCatV1.10B1784,2013-03-20 11:03:00,
2013-03-20 11:13:00,36.9,33.0,29.83,North,0,0.0,5.6,86,0.00,,,0.02,WeatherCatV1.10B1784,2013-03-20 11:13:00,
2013-03-20 11:23:00,36.7,33.1,29.83,SSW,202,0.9,2.9,87,0.00,,,0.02,WeatherCatV1.10B1784,2013-03-20 11:23:00,
2013-03-20 11:33:00,37.0,33.2,29.84,SSW,202,2.5,2.5,86,0.00,,,0.02,WeatherCatV1.10B1784,2013-03-20 11:33:00,
2013-03-20 11:43:00,37.4,33.5,29.84,SSE,157,4.5,4.7,86,0.00,,,0.02,WeatherCatV1.10B1784,2013-03-20 11:43:00,
2013-03-20 11:53:00,37.6,33.4,29.84,SSW,202,0.0,4.5,85,0.00,,,0.02,WeatherCatV1.10B1784,2013-03-20 11:53:00,
2013-03-20 12:03:00,37.6,33.2,29.84,SW,225,4.7,4.7,84,0.00,,,0.02,WeatherCatV1.10B1784,2013-03-20 12:03:00,
2013-03-20 12:13:00,36.9,32.4,29.85,South,180,3.1,4.5,84,0.00,,,0.02,WeatherCatV1.10B1784,2013-03-20 12:13:00,
2013-03-20 12:33:00,35.8,31.6,29.85,NE,45,1.3,5.4,85,0.00,,,0.02,WeatherCatV1.10B1784,2013-03-20 12:33:00,
2013-03-20 12:43:00,35.8,31.6,29.86,South,180,0.0,2.7,85,0.00,,,0.02,WeatherCatV1.10B1784,2013-03-20 12:43:00,
2013-03-20 12:53:00,35.8,31.6,29.87,SSE,157,2.7,2.7,85,0.00,,,0.02,WeatherCatV1.10B1784,2013-03-20 12:53:00,
2013-03-20 13:03:00,35.6,31.7,29.87,South,180,1.3,2.2,86,0.00,,,0.02,WeatherCatV1.10B1784,2013-03-20 13:03:00,
2013-03-20 13:13:00,35.8,31.9,29.88,SSW,202,0.9,2.2,86,0.00,,,0.02,WeatherCatV1.10B1784,2013-03-20 13:13:00,
2013-03-20 13:23:00,35.8,31.6,29.88,SSW,202,1.3,3.1,85,0.00,,,0.02,WeatherCatV1.10B1784,2013-03-20 13:23:00,
2013-03-20 13:33:00,35.8,31.4,29.88,SSW,202,0.9,2.9,84,0.00,,,0.02,WeatherCatV1.10B1784,2013-03-20 13:33:00,
2013-03-20 13:43:00,36.0,31.7,29.89,SSW,202,0.0,3.8,84,0.00,,,0.02,WeatherCatV1.10B1784,2013-03-20 13:43:00,
2013-03-20 13:53:00,36.3,31.9,29.89,South,180,0.0,2.2,84,0.00,,,0.02,WeatherCatV1.10B1784,2013-03-20 13:53:00,
2013-03-20 14:03:00,36.5,32.1,29.89,NNW,337,0.0,1.8,84,0.00,,,0.02,WeatherCatV1.10B1784,2013-03-20 14:03:00,
2013-03-20 14:13:00,37.0,32.6,29.89,South,180,4.7,4.7,84,0.00,,,0.02,WeatherCatV1.10B1784,2013-03-20 14:13:00,
2013-03-20 14:23:00,37.2,32.5,29.89,SW,225,0.0,0.0,83,0.00,,,0.02,WeatherCatV1.10B1784,2013-03-20 14:23:00,
2013-03-20 14:33:00,37.0,32.0,29.89,NNW,337,0.0,0.7,82,0.00,,,0.02,WeatherCatV1.10B1784,2013-03-20 14:33:00,
2013-03-20 14:43:00,36.3,31.3,29.89,NNW,337,0.0,2.2,82,0.00,,,0.02,WeatherCatV1.10B1784,2013-03-20 14:43:00,
2013-03-20 14:53:00,35.8,31.4,29.90,WSW,247,0.0,0.0,84,0.00,,,0.02,WeatherCatV1.10B1784,2013-03-20 14:53:00,
2013-03-20 15:03:00,35.6,30.9,29.90,SSE,157,0.0,1.3,83,0.00,,,0.02,WeatherCatV1.10B1784,2013-03-20 15:03:00,
2013-03-20 15:13:00,35.4,30.7,29.90,WNW,292,0.0,1.6,83,0.00,,,0.02,WeatherCatV1.10B1784,2013-03-20 15:13:00,
2013-03-20 15:23:00,35.4,30.7,29.90,South,180,0.0,1.8,83,0.00,,,0.02,WeatherCatV1.10B1784,2013-03-20 15:23:00,
2013-03-20 15:33:00,35.4,30.9,29.91,WSW,247,0.0,2.5,83,0.00,,,0.02,WeatherCatV1.10B1784,2013-03-20 15:33:00,
2013-03-20 15:43:00,35.4,30.7,29.91,North,0,1.1,1.1,83,0.00,,,0.02,WeatherCatV1.10B1784,2013-03-20 15:43:00,
2013-03-20 15:53:00,35.4,30.7,29.92,West,270,0.0,0.9,83,0.00,,,0.02,WeatherCatV1.10B1784,2013-03-20 15:53:00,
2013-03-20 16:03:00,35.1,30.6,29.91,South,180,0.0,1.1,84,0.00,,,0.02,WeatherCatV1.10B1784,2013-03-20 16:03:00,
2013-03-20 16:13:00,34.9,30.7,29.91,NNW,337,0.0,0.0,85,0.00,,,0.02,WeatherCatV1.10B1784,2013-03-20 16:13:00,
2013-03-20 16:23:00,34.9,30.7,29.92,South,180,0.9,2.0,85,0.00,,,0.02,WeatherCatV1.10B1784,2013-03-20 16:23:00,
2013-03-20 16:33:00,35.1,30.9,29.92,WNW,292,0.0,0.9,85,0.00,,,0.02,WeatherCatV1.10B1784,2013-03-20 16:33:00,
2013-03-20 16:43:00,35.2,31.1,29.92,NNW,337,0.0,2.0,85,0.00,,,0.02,WeatherCatV1.10B1784,2013-03-20 16:43:00,
2013-03-20 16:53:00,35.2,30.8,29.92,SSE,157,0.0,1.6,84,0.00,,,0.02,WeatherCatV1.10B1784,2013-03-20 16:53:00,
2013-03-20 17:03:00,35.2,30.8,29.92,NNE,22,0.0,0.0,84,0.00,,,0.02,WeatherCatV1.10B1784,2013-03-20 17:03:00,
2013-03-20 17:13:00,35.2,30.8,29.92,SSW,202,0.9,0.9,84,0.00,,,0.02,WeatherCatV1.10B1784,2013-03-20 17:13:00,
2013-03-20 17:23:00,34.9,30.5,29.94,WSW,247,0.0,0.0,84,0.00,,,0.02,WeatherCatV1.10B1784,2013-03-20 17:23:00,
2013-03-20 17:33:00,34.7,30.3,29.93,South,180,0.0,1.3,84,0.00,,,0.02,WeatherCatV1.10B1784,2013-03-20 17:33:00,
2013-03-20 17:53:00,34.3,30.2,29.94,WSW,247,0.0,2.5,85,0.00,,,0.02,WeatherCatV1.10B1784,2013-03-20 17:53:00,
2013-03-20 18:03:00,34.3,30.0,29.95,NNW,337,0.0,0.0,85,0.00,,,0.02,WeatherCatV1.10B1784,2013-03-20 18:03:00,
2013-03-20 18:13:00,34.2,30.1,29.95,SSW,202,0.0,1.6,86,0.00,,,0.02,WeatherCatV1.10B1784,2013-03-20 18:13:00,
2013-03-20 18:33:00,33.4,29.9,29.96,SSW,202,1.3,1.8,87,0.00,,,0.02,WeatherCatV1.10B1784,2013-03-20 18:33:00,
2013-03-20 18:43:00,33.1,29.9,29.96,SSE,157,0.0,0.0,88,0.00,,,0.02,WeatherCatV1.10B1784,2013-03-20 18:43:00,
2013-03-20 18:53:00,32.9,29.7,29.97,SSE,157,0.0,0.0,88,0.00,,,0.02,WeatherCatV1.10B1784,2013-03-20 18:53:00,
2013-03-20 19:03:00,32.9,29.7,29.97,SSE,157,0.0,0.0,88,0.00,,,0.02,WeatherCatV1.10B1784,2013-03-20 19:03:00,
2013-03-20 19:13:00,32.7,29.6,29.98,SSE,157,0.0,2.5,88,0.00,,,0.02,WeatherCatV1.10B1784,2013-03-20 19:13:00,
2013-03-20 19:23:00,32.5,29.4,29.98,SSE,157,0.0,0.0,88,0.00,,,0.02,WeatherCatV1.10B1784,2013-03-20 19:23:00,
2013-03-20 19:33:00,32.4,29.4,29.98,SSE,157,0.0,0.0,88,0.00,,,0.02,WeatherCatV1.10B1784,2013-03-20 19:33:00,
2013-03-20 19:43:00,32.2,29.1,29.98,SSE,157,0.0,0.0,88,0.00,,,0.02,WeatherCatV1.10B1784,2013-03-20 19:43:00,
2013-03-20 19:53:00,32.2,29.4,29.99,SSE,157,0.0,0.0,89,0.00,,,0.02,WeatherCatV1.10B1784,2013-03-20 19:53:00,
2013-03-20 20:03:00,32.2,29.4,30.00,SSE,157,0.0,0.0,89,0.00,,,0.02,WeatherCatV1.10B1784,2013-03-20 20:03:00,
2013-03-20 20:13:00,32.2,29.4,30.00,SSE,157,0.0,0.0,89,0.00,,,0.02,WeatherCatV1.10B1784,2013-03-20 20:13:00,
2013-03-20 20:23:00,32.2,29.4,30.00,SSE,157,0.0,0.0,89,0.00,,,0.02,WeatherCatV1.10B1784,2013-03-20 20:23:00,
2013-03-20 20:33:00,32.2,29.4,30.00,SSE,157,0.0,0.0,89,0.00,,,0.02,WeatherCatV1.10B1784,2013-03-20 20:33:00,
2013-03-20 20:43:00,32.2,29.4,30.00,SSE,157,0.0,0.0,89,0.00,,,0.02,WeatherCatV1.10B1784,2013-03-20 20:43:00,
2013-03-20 21:03:00,31.6,28.8,30.00,SSE,157,0.0,0.0,89,0.00,,,0.02,WeatherCatV1.10B1784,2013-03-20 21:03:00,
2013-03-20 21:13:00,30.9,28.1,30.01,SSE,157,0.0,0.0,89,0.00,,,0.02,WeatherCatV1.10B1784,2013-03-20 21:13:00,
2013-03-20 21:23:00,30.4,27.6,30.01,SSE,157,0.0,0.0,89,0.00,,,0.02,WeatherCatV1.10B1784,2013-03-20 21:23:00,
2013-03-20 21:33:00,29.8,27.3,30.01,SSE,157,0.0,0.0,90,0.00,,,0.02,WeatherCatV1.10B1784,2013-03-20 21:33:00,
2013-03-20 21:43:00,29.5,26.7,30.02,SSE,157,0.0,0.0,89,0.00,,,0.02,WeatherCatV1.10B1784,2013-03-20 21:43:00,
2013-03-20 21:53:00,29.5,27.0,30.03,SSE,157,0.0,0.9,90,0.00,,,0.02,WeatherCatV1.10B1784,2013-03-20 21:53:00,
2013-03-20 22:03:00,29.3,26.8,30.02,SSE,157,0.0,0.0,90,0.00,,,0.02,WeatherCatV1.10B1784,2013-03-20 22:03:00,
2013-03-20 22:13:00,29.1,26.9,30.03,SSE,157,0.0,0.0,91,0.00,,,0.02,WeatherCatV1.10B1784,2013-03-20 22:13:00,
2013-03-20 22:23:00,28.8,26.5,30.03,SSE,157,0.0,0.0,91,0.00,,,0.02,WeatherCatV1.10B1784,2013-03-20 22:23:00,
2013-03-20 22:33:00,28.9,26.7,30.04,SSE,157,0.0,0.0,91,0.00,,,0.02,WeatherCatV1.10B1784,2013-03-20 22:33:00,
2013-03-20 22:43:00,29.1,26.9,30.04,SSE,157,0.0,0.0,91,0.00,,,0.02,WeatherCatV1.10B1784,2013-03-20 22:43:00,
2013-03-20 22:53:00,29.3,27.0,30.04,SSE,157,0.0,0.0,91,0.00,,,0.02,WeatherCatV1.10B1784,2013-03-20 22:53:00,
2013-03-20 23:03:00,28.9,26.7,30.04,SSE,157,0.0,0.0,91,0.00,,,0.02,WeatherCatV1.10B1784,2013-03-20 23:03:00,
2013-03-20 23:13:00,28.8,26.5,30.04,SSE,157,0.0,0.0,91,0.00,,,0.02,WeatherCatV1.10B1784,2013-03-20 23:13:00,
2013-03-20 23:23:00,28.9,26.9,30.04,SSE,157,0.0,0.0,92,0.00,,,0.02,WeatherCatV1.10B1784,2013-03-20 23:23:00,
2013-03-20 23:33:00,29.3,27.3,30.03,SSE,157,0.0,2.5,92,0.00,,,0.02,WeatherCatV1.10B1784,2013-03-20 23:33:00,
2013-03-20 23:43:00,28.8,26.9,30.03,SSE,157,0.0,0.0,92,0.00,,,0.02,WeatherCatV1.10B1784,2013-03-20 23:43:00,
2013-03-20 23:53:00,28.2,26.2,30.03,SSE,157,0.0,0.0,92,0.00,,,0.02,WeatherCatV1.10B1784,2013-03-20 23:53:00,